Location: *
(45.9500°N, 9.0833°E)
Time: 21:01:21
(UTC+00:00)

Tiros 1 - Pass Details

Date: 20 June 2021
Orbit: 630 x 664 km, 48.4° (Epoch: 05 August)

Event Time Altitude Azimuth Distance (km) Brightness Sun altitude
Rises 09:30:37 0° 229° (SW) 2,910 10.4 57.7°
Reaches altitude 10° 09:32:58 10° 224° (SW) 2,009 9.8 58.1°
Maximum altitude 09:37:26 49° 150° (SSE) 819 9.6 58.7°
Drops below altitude 10° 09:41:57 10° 76° (ENE) 2,035 10.1 59.3°
Sets 09:44:21 0° 71° (ENE) 2,952 10.8 59.6°
